Location: Unnamed
(51.5169°N, 0.1311°W)
Time: 06:35:30
(UTC+01:00)

Vanguard 1 - Pass Details

Date: 11 August 2024
Orbit: 649 x 3825 km, 34.2° (Epoch: 16 September)

Event Time Altitude Azimuth Distance (km) Brightness Sun altitude
Rises 01:46:29 0° 249° (WSW) 5,049 13.4 -22.7°
Reaches altitude 10° 01:49:30 10° 242° (WSW) 4,413 13.0 -22.6°
Maximum altitude 02:01:24 41° 178° (S) 3,673 12.4 -22.2°
Drops below altitude 10° 02:20:03 10° 118° (ESE) 6,774 14.2 -21.4°
Sets 02:26:10 0° 113° (ESE) 7,942 14.7 -21.1°
